Wind_Speed
17 17 16 16 16 15 15 14 14 14 13 13 13 13 13 13 13 13 13 13 13 13 13 13 13 13 13 13 14 14 14 14 14 14 14 14 14 14 14 14 14 14 14
18 18 18 18 18 17 16 16 16 16 15 15 15 14 14 14 14 14 14 14 15 15 14 14 15 15 15 15 16 16 16 16 16 16 16 16 17 17 16 16 16 15 15
20 20 19 19 19 18 18 18 18 17 17 17 16 16 16 16 16 16 16 16 16 16 16 16 16 16 17 17 17 17 16 17 17 17 17 18 18 18 18 18 18 18 17
21 21 21 20 20 20 19 19 19 19 19 19 18 18 18 18 17 17 18 18 18 18 18 18 18 18 18 18 18 18 18 18 18 19 19 19 19 20 20 20 19 19 19
22 22 22 22 22 21 21 21 21 21 21 21 20 20 20 20 20 19 19 20 20 20 20 20 20 20 20 20 20 19 20 20 20 20 20 20 20 20 21 21 21 21 21
23 23 23 23 22 22 22 22 22 22 22 22 22 22 22 22 21 22 22 22 22 22 22 22 22 22 22 22 22 21 21 22 21 21 21 21 21 21 21 21 22 22 22
24 24 24 24 23 23 23 23 23 24 24 24 24 24 24 24 23 23 23 23 23 23 23 24 23 23 23 23 23 23 23 23 23 22 22 23 23 23 23 23 23 23 23
25 25 25 25 25 25 25 25 26 26 26 26 26 26 26 26 25 25 25 25 25 25 25 25 25 26 26 26 25 25 25 25 25 24 24 25 25 25 25 25 25 25 25
26 26 27 27 27 27 27 27 27 27 27 27 27 28 28 28 28 27 27 27 27 27 27 28 28 28 28 28 28 28 28 28 27 27 27 27 27 27 27 27 27 27 27
28 28 28 28 29 28 29 29 29 28 29 29 29 29 29 29 29 29 29 29 30 30 30 30 30 30 30 31 31 30 30 30 30 30 30 30 30 30 30 30 30 29 29
29 29 29 29 29 29 29 29 30 30 30 30 30 30 31 31 31 31 31 31 31 32 32 32 32 32 32 33 33 33 33 33 33 33 33 33 33 33 33 33 33 32 32
29 29 29 28 29 29 30 30 30 31 31 31 31 31 32 32 32 33 33 33 33 33 33 33 33 34 34 34 34 35 35 35 35 35 35 35 35 35 35 35 36 35 35
29 28 28 28 29 30 30 31 31 32 32 32 33 33 33 33 33 34 34 35 35 35 36 35 36 36 36 36 36 37 37 37 37 37 37 37 37 37 37 38 38 37 38
28 28 29 29 29 30 31 31 32 32 33 34 34 35 35 35 35 36 36 37 37 37 38 38 38 38 38 39 39 39 39 40 40 40 40 40 40 40 40 40 40 40 40
29 29 29 29 30 30 31 32 33 34 34 35 35 36 36 37 37 38 38 38 39 39 39 40 40 40 41 41 41 42 42 42 43 43 43 44 44 44 43 43 43 43 43
28 29 30 30 30 31 32 32 34 35 36 36 36 37 37 38 38 39 39 39 40 40 41 41 42 43 43 43 44 45 46 46 46 46 46 47 47 47 47 46 45 45 45
29 29 30 31 31 32 32 33 34 35 35 36 37 38 38 39 39 40 40 41 41 42 43 43 44 45 46 46 47 47 48 48 48 49 49 49 49 49 48 48 48 47 47
29 30 31 32 32 32 33 34 35 36 36 37 37 38 39 39 40 41 42 42 43 44 45 46 46 47 48 49 49 49 50 50 50 50 51 51 51 51 50 50 50 49 49
30 30 32 32 33 34 34 35 35 36 37 37 38 39 40 41 42 43 44 45 46 47 47 48 49 49 50 51 51 51 51 52 52 52 53 53 53 53 53 53 53 52 51
31 32 32 33 34 35 36 36 37 38 38 39 40 41 42 42 43 44 46 47 48 49 50 50 51 51 52 52 53 53 54 54 55 55 56 56 56 56 56 55 55 55 54
32 33 33 34 35 36 37 38 39 39 40 41 42 43 43 44 45 46 47 48 49 51 51 52 52 53 54 55 56 56 56 57 58 58 58 58 59 59 58 58 58 57 56
33 34 34 35 35 36 38 39 40 41 42 43 44 44 45 45 46 47 48 49 51 52 53 54 55 56 56 57 59 59 59 59 59 60 60 61 61 60 60 60 60 59 58
34 35 36 37 38 39 41 41 42 43 44 44 45 46 47 47 48 49 50 52 52 53 54 56 57 58 58 59 61 62 62 62 61 59 60 60 61 61 61 61 61 60 59
35 37 38 39 40 42 43 44 44 45 46 46 47 48 48 50 51 52 52 53 54 55 56 58 59 60 62 62 63 63 64 64 63 61 60 60 60 61 61 61 61 61 61
37 38 40 41 43 44 45 46 47 47 48 48 49 49 50 51 53 54 55 55 56 57 59 60 62 63 64 65 65 65 65 64 64 65 62 60 59 60 61 61 61 61 62
39 40 41 43 44 46 47 48 48 49 50 50 51 51 52 53 55 56 57 58 60 61 62 63 63 64 65 65 66 66 66 65 64 65 64 62 60 59 59 60 60 61 61
Wind_Direction
248 250 252 253 254 255 257 259 261 262 263 264 265 266 267 269 272 273 273 274 277 280 283 285 287 287 287 286 286 286 288 287 286 288 288 289 292 295 296 293 294 294 294
248 250 251 253 254 255 257 260 261 262 263 264 266 266 268 270 272 274 275 274 275 276 278 280 282 283 283 283 284 284 285 285 284 286 286 287 288 291 292 290 288 290 291
248 249 250 253 254 256 258 260 263 264 265 266 267 267 269 270 272 274 275 275 275 276 278 278 280 280 281 282 283 284 285 286 283 283 284 285 285 286 287 288 287 288 290
249 249 251 252 255 257 258 261 263 264 266 267 268 268 269 270 272 274 274 274 275 276 277 278 278 280 280 281 282 281 283 283 283 284 285 286 286 285 285 286 286 287 288
250 251 252 253 256 258 260 262 263 264 266 267 268 269 270 270 271 273 275 275 275 276 277 277 277 277 278 279 279 279 281 281 283 283 283 284 287 286 286 286 286 285 285
252 252 254 255 257 258 260 261 262 264 265 267 268 269 270 271 271 272 273 274 275 276 276 277 277 276 276 277 277 278 278 279 280 281 282 283 283 285 286 287 287 287 285
254 255 255 256 257 258 259 261 262 264 265 266 267 268 269 270 270 271 272 273 274 275 276 276 277 277 276 276 277 277 277 278 278 279 280 281 282 283 283 285 286 286 286
255 257 257 257 258 259 261 262 263 264 265 266 267 268 269 269 269 271 271 272 273 274 275 276 276 276 277 277 278 278 278 278 278 278 278 279 280 281 281 282 282 283 283
256 257 259 260 260 261 262 263 264 264 265 266 267 268 269 269 270 270 271 272 273 274 274 275 275 276 276 277 277 277 277 277 277 276 277 277 278 279 279 280 280 281 281
257 258 260 261 262 262 263 263 264 265 266 267 267 268 268 269 270 271 272 272 273 274 275 275 276 276 276 276 277 276 277 276 276 276 276 276 276 277 278 278 278 278 279
258 259 261 261 262 263 264 264 265 266 267 268 269 269 270 270 271 271 272 272 273 274 274 275 275 276 276 276 277 277 277 277 276 276 275 275 276 276 277 277 277 278 278
258 259 261 262 263 264 265 266 266 267 268 269 270 270 271 271 271 271 272 272 273 274 274 275 275 276 276 277 277 277 277 277 277 276 276 276 275 276 276 276 276 277 278
258 259 260 262 263 264 266 267 267 268 269 270 270 271 272 272 271 271 271 272 273 274 274 275 275 276 277 277 278 278 278 277 277 277 276 276 275 276 276 276 276 276 277
258 259 261 262 264 265 266 267 268 269 270 271 271 272 272 272 272 273 273 272 272 273 274 275 275 276 277 277 277 278 278 277 277 276 276 276 276 276 276 275 275 276 276
258 260 262 264 265 266 267 269 270 270 271 271 271 272 272 273 273 274 274 275 274 274 274 275 275 276 276 277 277 278 277 277 277 276 276 275 275 276 276 274 274 274 275
260 261 263 265 266 268 270 271 271 271 272 272 273 273 273 274 274 274 275 275 275 274 274 275 275 276 276 277 277 278 278 278 277 276 276 276 276 276 276 275 274 274 274
260 262 264 266 268 269 270 272 273 273 274 274 275 275 275 275 275 275 275 275 275 275 275 276 276 276 277 277 277 277 278 277 277 276 276 275 275 275 276 274 274 273 273
261 263 265 267 269 270 271 273 274 274 274 275 275 276 276 276 276 276 276 276 276 276 277 277 278 278 278 278 278 277 277 277 277 277 276 275 275 274 274 273 273 272 272
262 264 266 267 270 271 273 274 275 275 275 276 277 277 277 277 276 277 277 277 277 277 278 278 278 279 278 278 278 277 277 277 277 277 276 275 274 274 273 273 272 271 271
263 265 267 269 270 272 273 275 276 276 277 277 278 278 278 277 277 277 278 278 277 278 278 279 279 279 279 278 278 278 277 277 277 277 276 275 274 273 272 271 271 271 270
266 266 268 270 272 273 275 277 277 277 278 278 278 279 279 278 278 278 279 279 280 280 279 279 279 279 279 279 279 278 278 278 278 278 277 276 274 272 272 271 270 270 269
269 269 270 271 273 275 277 278 279 279 279 279 279 279 279 279 280 280 281 282 282 282 281 280 280 280 280 280 280 279 278 278 278 278 277 276 274 273 272 271 270 269 267
272 272 272 273 275 277 279 279 280 280 280 280 280 280 279 280 281 283 283 283 283 283 283 282 282 281 281 281 281 281 281 280 278 277 277 276 275 274 272 271 269 267 266
274 275 276 276 277 278 280 280 281 281 281 281 281 281 280 281 283 284 285 284 285 285 284 284 284 283 282 282 282 282 283 282 281 279 277 275 274 273 271 270 268 267 266
274 276 277 278 279 279 280 281 281 282 282 282 282 281 282 283 284 285 285 285 285 285 285 285 284 284 283 283 282 282 282 282 282 281 279 276 274 273 271 270 269 267 266
275 277 278 280 281 281 282 282 282 283 282 281 281 282 283 284 285 285 285 286 286 286 286 286 285 285 284 283 283 283 282 282 282 281 281 278 275 272 271 270 269 268 265
Height
5840 5841 5842 5843 5844 5845 5845 5846 5847 5848 5849 5849 5850 5850 5851 5852 5852 5853 5853 5854 5855 5855 5856 5856 5856 5857 5857 5857 5857 5857 5857 5857 5857 5857 5857 5857 5856 5856 5856 5856 5855 5855 5854
5837 5838 5839 5840 5841 5842 5843 5844 5844 5845 5846 5847 5847 5848 5849 5849 5850 5850 5851 5851 5852 5853 5853 5853 5854 5854 5854 5855 5855 5855 5855 5855 5855 5854 5854 5854 5854 5854 5853 5853 5853 5852 5852
5834 5835 5836 5837 5838 5839 5840 5841 5841 5842 5843 5844 5844 5845 5846 5846 5847 5848 5848 5849 5849 5850 5850 5850 5851 5851 5851 5852 5852 5852 5852 5852 5852 5851 5851 5851 5851 5851 5850 5850 5850 5849 5849
5830 5831 5832 5833 5834 5835 5836 5837 5838 5839 5840 5841 5841 5842 5843 5843 5844 5844 5845 5845 5846 5846 5846 5847 5847 5848 5848 5848 5848 5848 5848 5848 5848 5848 5848 5848 5848 5847 5847 5847 5846 5846 5845
5827 5828 5829 5830 5831 5832 5833 5834 5835 5835 5836 5837 5838 5838 5839 5840 5840 5841 5841 5842 5842 5842 5843 5843 5843 5844 5844 5844 5845 5845 5845 5845 5845 5844 5844 5844 5844 5844 5843 5843 5843 5842 5842
5823 5824 5825 5826 5827 5828 5829 5830 5831 5832 5832 5833 5834 5834 5835 5836 5836 5837 5837 5838 5838 5838 5838 5839 5839 5839 5840 5840 5840 5841 5841 5841 5841 5841 5841 5840 5840 5840 5840 5839 5839 5838 5838
5819 5820 5821 5822 5823 5824 5825 5826 5827 5827 5828 5829 5829 5830 5831 5831 5832 5832 5833 5833 5833 5834 5834 5834 5834 5835 5835 5835 5836 5836 5836 5836 5836 5836 5836 5836 5836 5836 5835 5835 5834 5834 5833
5814 5815 5816 5817 5818 5819 5820 5821 5822 5823 5823 5824 5825 5825 5826 5826 5827 5827 5828 5828 5828 5829 5829 5829 5830 5830 5830 5830 5831 5831 5831 5831 5832 5832 5832 5831 5831 5831 5831 5830 5830 5829 5829
5810 5811 5812 5813 5814 5815 5816 5816 5817 5818 5818 5819 5820 5820 5821 5821 5822 5822 5823 5823 5823 5824 5824 5824 5824 5825 5825 5825 5825 5825 5826 5826 5826 5826 5826 5826 5826 5826 5825 5825 5825 5824 5824
5804 5805 5807 5807 5808 5809 5810 5811 5812 5812 5813 5814 5814 5815 5815 5816 5816 5816 5817 5817 5818 5818 5818 5818 5818 5819 5819 5819 5819 5819 5819 5819 5820 5820 5820 5820 5819 5819 5819 5819 5819 5818 5818
5799 5800 5801 5802 5803 5804 5805 5805 5806 5807 5807 5808 5808 5809 5809 5810 5810 5810 5811 5811 5811 5812 5812 5812 5812 5812 5812 5812 5812 5812 5812 5813 5813 5813 5813 5813 5813 5813 5812 5812 5812 5812 5812
5794 5795 5796 5797 5797 5798 5799 5799 5800 5801 5801 5802 5802 5802 5803 5803 5803 5804 5804 5804 5805 5805 5805 5805 5805 5805 5805 5805 5805 5805 5805 5805 5805 5805 5806 5806 5805 5805 5805 5805 5805 5805 5805
5788 5789 5790 5791 5791 5792 5793 5793 5794 5794 5795 5795 5796 5796 5796 5796 5796 5797 5797 5797 5797 5797 5798 5798 5798 5798 5798 5798 5798 5797 5797 5797 5797 5797 5798 5797 5797 5797 5797 5797 5797 5797 5797
5782 5783 5784 5785 5785 5786 5786 5787 5787 5788 5788 5788 5788 5789 5789 5789 5789 5789 5789 5789 5790 5790 5790 5790 5790 5790 5790 5789 5789 5789 5789 5789 5788 5789 5789 5789 5789 5789 5789 5788 5788 5788 5788
5776 5777 5778 5778 5779 5780 5780 5780 5780 5781 5781 5781 5781 5781 5781 5781 5781 5781 5781 5781 5781 5781 5781 5781 5781 5781 5781 5780 5780 5780 5780 5779 5779 5779 5779 5779 5779 5779 5779 5779 5779 5779 5779
5770 5770 5771 5772 5772 5773 5773 5773 5773 5773 5773 5773 5773 5773 5773 5773 5772 5772 5772 5772 5772 5772 5772 5772 5772 5772 5771 5771 5770 5770 5770 5769 5769 5768 5768 5768 5768 5768 5768 5768 5768 5768 5768
5763 5764 5764 5765 5765 5766 5766 5766 5766 5766 5765 5765 5765 5764 5764 5764 5764 5763 5763 5763 5763 5762 5762 5762 5762 5761 5761 5761 5760 5759 5759 5758 5757 5757 5757 5757 5757 5757 5757 5757 5757 5757 5757
5756 5757 5757 5758 5758 5758 5758 5758 5758 5758 5757 5757 5756 5756 5755 5755 5755 5754 5754 5753 5753 5752 5752 5751 5751 5750 5750 5749 5749 5748 5747 5746 5745 5745 5745 5744 5744 5744 5745 5745 5745 5745 5746
5750 5750 5750 5750 5751 5751 5750 5750 5750 5750 5749 5748 5747 5747 5746 5745 5745 5744 5743 5743 5742 5741 5741 5740 5739 5738 5738 5737 5736 5736 5735 5734 5733 5732 5732 5731 5731 5731 5731 5732 5732 5732 5733
5742 5743 5743 5743 5743 5742 5742 5742 5742 5741 5740 5739 5738 5737 5736 5735 5734 5733 5732 5731 5730 5729 5728 5728 5727 5725 5724 5723 5723 5723 5722 5721 5720 5719 5718 5717 5717 5717 5717 5717 5718 5718 5719
5735 5735 5735 5735 5735 5734 5734 5733 5733 5732 5731 5730 5728 5727 5726 5725 5723 5722 5721 5719 5718 5717 5716 5714 5713 5712 5711 5709 5708 5708 5708 5707 5705 5704 5703 5702 5701 5701 5701 5702 5702 5703 5704
5727 5727 5727 5727 5726 5726 5725 5724 5723 5722 5721 5719 5718 5716 5715 5713 5712 5710 5709 5708 5706 5704 5702 5701 5699 5698 5696 5694 5692 5692 5692 5694 5691 5689 5687 5685 5684 5684 5685 5685 5686 5687 5688
5719 5719 5718 5718 5717 5716 5715 5714 5713 5712 5710 5709 5707 5706 5704 5702 5700 5698 5697 5695 5693 5690 5689 5686 5684 5682 5681 5679 5676 5674 5673 5674 5675 5675 5672 5670 5667 5666 5667 5667 5668 5669 5671
5710 5710 5709 5709 5708 5707 5705 5703 5702 5700 5699 5698 5696 5694 5692 5690 5688 5686 5683 5681 5679 5677 5674 5672 5669 5667 5664 5663 5660 5657 5655 5654 5653 5656 5657 5654 5651 5649 5649 5649 5650 5651 5652
5702 5701 5700 5699 5698 5696 5694 5692 5690 5688 5687 5685 5683 5682 5680 5677 5675 5672 5670 5667 5665 5662 5659 5657 5654 5651 5647 5645 5643 5640 5638 5636 5633 5633 5637 5638 5635 5633 5631 5631 5632 5633 5634
5692 5691 5690 5689 5687 5685 5682 5680 5677 5675 5674 5672 5670 5669 5667 5664 5662 5659 5656 5653 5650 5647 5644 5641 5637 5634 5631 5628 5625 5622 5620 5618 5616 5613 5614 5617 5617 5617 5614 5613 5614 5614 5615